Weather History for Dumas, TX

Change the Weather History Date:

Monday, September 23, 2013

  Actual Average (KBGD) Record (KBGD)
Temperature  
Mean Temperature 68 °F 69 °F  
Max Temperature 79 °F 81 °F 96 °F (2012)
Min Temperature 57 °F 57 °F 39 °F (1989)
Degree Days  
Heating Degree Days 0 1  
Month to date heating degree days 9  
Since 1 July heating degree days 10  
Cooling Degree Days 3 6  
Month to date cooling degree days 202  
Year to date cooling degree days 1752  
Growing Degree Days 18 (Base 50)    
Moisture  
Dew Point 44 °F    
Average Humidity 46    
Maximum Humidity 74    
Minimum Humidity 23    
Precipitation  
Precipitation 0.00 in 0.08 in 2.02 in (1960)
Month to date precipitation 1.87  
Year to date precipitation 17.88  
Snow  
Snow 0.00 in - 0.00 in (2013)
Month to date snowfall  
Since 1 July snowfall  
Since 1 September snowfall  
Snow Depth -    
Sea Level Pressure  
Sea Level Pressure 29.82 in    
Wind  
Wind Speed 13 mph (SW)    
Max Wind Speed 25 mph    
Max Gust Speed 31 mph    
Visibility 10 miles    
Events      
T = Trace of Precipitation, MM = Missing Value Source: NWS Daily Summary

Daily Weather History Graph

Daily Weather History Graph

Search for Another Location

Airport:

Trip Planner

Search our weather history database for the weather conditions in past years. The results will help you decide how hot, cold, wet, or windy it might be!

Date:

Astronomy

Sep. 23, 2013 Rise Set
Actual Time 7:37 AM CDT 7:42 PM CDT
Civil Twilight 7:11 AM CDT 8:08 PM CDT
Nautical Twilight 6:41 AM CDT 8:38 PM CDT
Astronomical Twilight 6:11 AM CDT 9:08 PM CDT
Moon 10:25 PM CDT (9/23) 11:49 AM CDT (9/23)
Length of Visible Light 12h 57m
Length of Day
12h 05m
Waning Gibbous, 81% of the Moon is Illuminated
Sep 23
Waning Gibbous
Sep 26
Last Quarter
Oct 4
New
Oct 11
First Quarter
Oct 18
Full

Hourly Weather History & Observations

Time (CDT) Temp. Dew Point Humidity Pressure Visibility Wind Dir Wind Speed Gust Speed Precip Events Conditions
12:15 AM 65.1 °F 43.2 °F 45% 29.75 in 10.0 mi SSE 16.1 mph - N/A   Clear
12:35 AM 64.6 °F 43.3 °F 46% 29.77 in 10.0 mi South 15.0 mph 21.9 mph N/A   Clear
12:55 AM 63.9 °F 43.7 °F 48% 29.77 in 10.0 mi South 13.8 mph - N/A   Clear
1:15 AM 64.0 °F 43.3 °F 47% 29.77 in 10.0 mi South 15.0 mph 20.7 mph N/A   Clear
1:35 AM 63.5 °F 43.7 °F 48% 29.77 in 10.0 mi South 16.1 mph - N/A   Clear
1:55 AM 64.0 °F 44.1 °F 48% 29.76 in 10.0 mi South 17.3 mph 21.9 mph N/A   Clear
2:15 AM 64.8 °F 44.1 °F 47% 29.82 in 10.0 mi SW 24.2 mph - N/A   Scattered Clouds
2:35 AM 64.4 °F 44.4 °F 48% 29.82 in 10.0 mi SW 15.0 mph 24.2 mph N/A   Scattered Clouds
2:55 AM 61.5 °F 48.6 °F 62% 29.83 in 10.0 mi West 13.8 mph 24.2 mph N/A   Clear
3:15 AM 59.9 °F 49.1 °F 67% 29.82 in 10.0 mi West 10.4 mph - N/A   Clear
3:35 AM 59.0 °F 49.1 °F 70% 29.80 in 10.0 mi West 5.8 mph - N/A   Clear
3:55 AM 58.8 °F 49.5 °F 71% 29.80 in 10.0 mi WSW 5.8 mph - N/A   Scattered Clouds
4:15 AM 59.4 °F 50.0 °F 71% 29.79 in 10.0 mi SW 11.5 mph - N/A   Scattered Clouds
4:35 AM 59.9 °F 50.2 °F 70% 29.78 in 10.0 mi SSW 11.5 mph - N/A   Mostly Cloudy
4:55 AM 59.9 °F 50.4 °F 71% 29.77 in 10.0 mi South 10.4 mph - N/A   Mostly Cloudy
5:15 AM 59.5 °F 50.4 °F 72% 29.76 in 10.0 mi South 15.0 mph - N/A   Mostly Cloudy
5:35 AM 59.4 °F 50.2 °F 72% 29.75 in 10.0 mi South 16.1 mph - N/A   Mostly Cloudy
5:55 AM 59.9 °F 50.2 °F 70% 29.74 in 10.0 mi South 13.8 mph - N/A   Mostly Cloudy
6:15 AM 59.0 °F 50.2 °F 73% 29.73 in 10.0 mi South 15.0 mph - N/A   Mostly Cloudy
6:35 AM 58.3 °F 50.0 °F 74% 29.73 in 10.0 mi South 16.1 mph - N/A   Scattered Clouds
6:55 AM 58.1 °F 49.5 °F 73% 29.73 in 10.0 mi South 16.1 mph - N/A   Clear
7:15 AM 57.6 °F 48.2 °F 71% 29.72 in 10.0 mi South 16.1 mph - N/A   Clear
7:35 AM 57.4 °F 46.9 °F 68% 29.73 in 10.0 mi South 16.1 mph - N/A   Clear
7:55 AM 57.7 °F 47.3 °F 68% 29.73 in 10.0 mi South 17.3 mph - N/A   Clear
8:15 AM 58.6 °F 47.7 °F 67% 29.74 in 10.0 mi SSW 15.0 mph - N/A   Clear
8:35 AM 60.4 °F 48.2 °F 64% 29.76 in 10.0 mi SSW 15.0 mph - N/A   Clear
8:55 AM 61.5 °F 48.6 °F 62% 29.75 in 10.0 mi SSW 16.1 mph 19.6 mph N/A   Clear
9:15 AM 63.7 °F 47.5 °F 56% 29.76 in 10.0 mi SW 18.4 mph - N/A   Clear
9:35 AM 65.3 °F 44.8 °F 47% 29.76 in 10.0 mi SW 20.7 mph 25.3 mph N/A   Clear
9:55 AM 66.2 °F 40.8 °F 40% 29.77 in 10.0 mi WSW 25.3 mph - N/A   Clear
10:15 AM 67.8 °F 38.5 °F 34% 29.77 in 10.0 mi WSW 23.0 mph 28.8 mph N/A   Clear
10:35 AM 68.7 °F 37.6 °F 32% 29.78 in 10.0 mi WSW 20.7 mph 29.9 mph N/A   Clear
10:55 AM 69.8 °F 38.3 °F 32% 29.78 in 10.0 mi WSW 23.0 mph 31.1 mph N/A   Clear
11:15 AM 70.2 °F 39.2 °F 32% 29.78 in 10.0 mi West 20.7 mph - N/A   Clear
11:35 AM 71.8 °F 39.0 °F 30% 29.78 in 10.0 mi West 21.9 mph 27.6 mph N/A   Clear
11:55 AM 72.7 °F 39.7 °F 30% 29.78 in 10.0 mi West 19.6 mph 25.3 mph N/A   Clear
12:15 PM 73.4 °F 39.6 °F 29% 29.78 in 10.0 mi West 16.1 mph 25.3 mph N/A   Clear
12:35 PM 74.1 °F 39.9 °F 29% 29.78 in 10.0 mi West 16.1 mph 23.0 mph N/A   Clear
12:55 PM 75.2 °F 39.2 °F 27% 29.79 in 10.0 mi WNW 13.8 mph 20.7 mph N/A   Clear
1:15 PM 76.1 °F 39.9 °F 27% 29.79 in 10.0 mi NW 9.2 mph - N/A   Clear
1:35 PM 76.6 °F 40.3 °F 27% 29.79 in 10.0 mi WNW 9.2 mph - N/A   Clear
1:55 PM 77.0 °F 38.7 °F 25% 29.79 in 10.0 mi NNW 10.4 mph - N/A   Clear
2:15 PM 77.5 °F 39.6 °F 26% 29.79 in 10.0 mi NW 9.2 mph - N/A   Clear
2:35 PM 77.5 °F 40.5 °F 26% 29.79 in 7.0 mi North 10.4 mph - N/A   Clear
2:55 PM 78.1 °F 40.5 °F 26% 29.79 in 10.0 mi NNW 9.2 mph - N/A   Clear
3:15 PM 77.9 °F 40.6 °F 26% 29.80 in 10.0 mi North 8.1 mph - N/A   Clear
3:35 PM 78.1 °F 39.7 °F 25% 29.80 in 10.0 mi Calm Calm - N/A   Clear
3:55 PM 79.2 °F 40.1 °F 25% 29.81 in 10.0 mi NNE 6.9 mph 17.3 mph N/A   Clear
4:15 PM 79.7 °F 40.3 °F 24% 29.81 in 10.0 mi North 3.5 mph - N/A   Clear
4:35 PM 79.7 °F 39.4 °F 24% 29.82 in 10.0 mi NNE 8.1 mph - N/A   Clear
4:55 PM 79.2 °F 39.4 °F 24% 29.82 in 10.0 mi ENE 4.6 mph - N/A   Clear
5:15 PM 79.2 °F 39.7 °F 24% 29.83 in 10.0 mi NW 4.6 mph - N/A   Clear
5:35 PM 77.5 °F 37.4 °F 24% 29.84 in 10.0 mi Calm Calm - N/A   Clear
5:55 PM 78.6 °F 37.9 °F 23% 29.84 in 10.0 mi Calm Calm - N/A   Clear
6:15 PM 76.1 °F 39.7 °F 27% 29.85 in 10.0 mi Calm Calm - N/A   Clear
6:35 PM 76.5 °F 40.1 °F 27% 29.86 in 10.0 mi Calm Calm - N/A   Clear
6:55 PM 77.2 °F 42.8 °F 29% 29.86 in 10.0 mi Calm Calm - N/A   Clear
7:15 PM 74.8 °F 41.5 °F 30% 29.87 in 10.0 mi ESE 4.6 mph - N/A   Clear
7:35 PM 71.8 °F 43.2 °F 36% 29.88 in 10.0 mi SE 4.6 mph - N/A   Scattered Clouds
7:55 PM 70.9 °F 43.5 °F 37% 29.89 in 10.0 mi SE 4.6 mph - N/A   Scattered Clouds
8:15 PM 70.0 °F 43.3 °F 38% 29.90 in 10.0 mi SE 4.6 mph - N/A   Scattered Clouds
8:35 PM 68.7 °F 44.2 °F 41% 29.91 in 10.0 mi ESE 5.8 mph - N/A   Clear
8:55 PM 67.3 °F 46.2 °F 47% 29.92 in 10.0 mi East 8.1 mph - N/A   Scattered Clouds
9:15 PM 68.7 °F 43.7 °F 40% 29.94 in 10.0 mi ENE 8.1 mph - N/A   Scattered Clouds
9:35 PM 65.5 °F 45.5 °F 48% 29.95 in 10.0 mi NE 6.9 mph - N/A   Clear
9:55 PM 63.0 °F 46.8 °F 55% 29.97 in 10.0 mi NNE 9.2 mph - N/A   Clear
10:15 PM 64.6 °F 45.5 °F 50% 29.98 in 10.0 mi NE 8.1 mph - N/A   Clear
10:35 PM 62.8 °F 46.0 °F 54% 30.00 in 10.0 mi NE 8.1 mph - N/A   Clear
10:55 PM 62.8 °F 45.9 °F 54% 30.00 in 10.0 mi NNE 8.1 mph - N/A   Clear
11:15 PM 60.8 °F 46.4 °F 59% 30.01 in 10.0 mi NE 5.8 mph - N/A   Clear
11:35 PM 59.2 °F 46.4 °F 63% 30.02 in 10.0 mi NNE 5.8 mph - N/A   Clear
11:55 PM 58.1 °F 46.8 °F 66% 30.02 in 10.0 mi NE 4.6 mph - N/A   Clear